Tracking 20242 objects as of 24-Jan-2020
HD Live streaming from Space Station
objects crossing your sky now

FENGYUN 1C DEB

Track FENGYUN 1C DEB now!
10-day predictions


NORAD ID: 38721
Int'l Code: 1999-025ETN
Perigee: 788.6 km
Apogee: 900.2 km
Inclination: 98.9 °
Period: 101.7 minutes
Semi major axis: 7215 km
RCS: 0.0013 m2 (small)
Launch date: May 10, 1999
Source: People's Republic of China (PRC)
Launch site: Taiyaun Space Center, China (TSC)

Note: This is SATELLITE DEBRIS
aabbcc
Your satellite tracking list
Your tracking list is empty




NASA's NSSDC Master Catalog

Two Line Element Set (TLE):
1 38721U 99025ETN 20023.40142042 +.00000590 +00000-0 +30962-3 0  9997
2 38721 098.9226 101.3527 0077355 050.5284 310.2699 14.16477730327944
Source of the keplerian elements: AFSPC